Regional Weather Roundup
Issued by NWS

Home | Current Version | Previous Version | Text Only | Print | Product List | Glossary Off
Versions: 1 2 3 4 5 6 7 8 9 10 11 12 13 14 15 16 17 18 19 20 21 22 23 24 25 26 27 28 29 30 31 32 33 34 35 36 37 38 39 40 41 42 43 44 45 46 47 48 49 50

000
ASUS43 KIND 150009
RWRIN

WEATHER ROUNDUP FOR INDIANA
NATIONAL WEATHER SERVICE INDIANAPOLIS IN
800 PM EDT SUN SEP 14 2014

NOTE: "FAIR" INDICATES FEW OR NO CLOUDS BELOW 12,000 FEET WITH NO
SIGNIFICANT WEATHER AND/OR OBSTRUCTIONS TO VISIBILITY.

* - STATION DOES NOT REPORT WEATHER SUCH AS PRECIPITATION OR FOG.

+ - STATION NOT QUALITY CONTROLLED BY THE NATIONAL WEATHER SERVICE.
    USE DATA WITH CAUTION...ESPECIALLY DEWPOINT AND RELATIVE
    HUMIDITY OBSERVATIONS.

INZ001>003-010>013-019-020-150100-
NORTHWEST INDIANA

CITY           SKY/WX    TMP DP  RH WIND       PRES   REMARKS
GARY /AIRPORT/ PTCLDY    61  48  63 S6        30.19S
KNOX *+        CLEAR     58  48  68 CALM      30.20S
LA PORTE +     CLEAR     55  49  78 CALM      30.21S
6HR MIN TEMP:  55; 6HR MAX TEMP:  64;

MICHIGAN CITY+ CLEAR     54  46  76 CALM      30.20S
MONTICELLO +   CLEAR     58  49  69 CALM      30.20S
RENSSELAER +   CLEAR     57  52  82 CALM      30.20F
VALPARAISO     CLEAR     58  47  66 CALM      30.20F
6HR MIN TEMP:  58; 6HR MAX TEMP:  65;


$$

LMZ046-743>745-150100-
SOUTHERN LAKE MICHIGAN

STATION/POSITION TIME  TEMP WIND        PRES
                       AIR  DIR/SP/G
                 (UTC) (F)  (DEG/KT/KT) (MB)
MICHIGAN CITY    0000   62  180/  6/  8   N/A

$$

INZ004-005-014>016-021>024-150100-
NORTH CENTRAL INDIANA

CITY           SKY/WX    TMP DP  RH WIND       PRES   REMARKS
GOSHEN         CLEAR     60  45  57 CALM      30.21S
6HR MIN TEMP:  59; 6HR MAX TEMP:  65;

LOGANSPORT +   CLEAR     55  45  67 CALM      30.21S
PERU/GRISSOM   CLEAR     61  49  65 W5        30.21S
6HR MIN TEMP:  61; 6HR MAX TEMP:  67;

ROCHESTER +    CLEAR     61  46  59 CALM      30.22S
SOUTH BEND     CLEAR     61  45  55 S3        30.21S
6HR MIN TEMP:  59; 6HR MAX TEMP:  65;

WARSAW +       CLEAR     59  46  63 CALM      30.21S

$$

INZ006>009-017-018-025>027-150100-
NORTHEAST INDIANA

CITY           SKY/WX    TMP DP  RH WIND       PRES   REMARKS
ANGOLA *+      CLEAR     57  48  72 CALM      30.21S
AUBURN +       CLEAR     55  46  71 CALM      30.22S
FORT WAYNE     PTCLDY    57  49  74 CALM      30.21F
6HR MIN TEMP:  57; 6HR MAX TEMP:  67;

HUNTINGTON +   CLEAR     57  51  81 CALM      30.20F
6HR MIN TEMP:  57; 6HR MAX TEMP:  64;


$$

INZ028-029-035-036-043>045-051>053-150100-
WEST CENTRAL INDIANA

CITY           SKY/WX    TMP DP  RH WIND       PRES   REMARKS
GREENCASTLE +  CLEAR     57  50  77 CALM      30.22S
LAFAYETTE      CLEAR     59  50  72 CALM      30.21R
6HR MIN TEMP:  59; 6HR MAX TEMP:  66;

TERRE HAUTE    CLEAR     60  51  72 CALM      30.21S
6HR MIN TEMP:  60; 6HR MAX TEMP:  69;


$$

INZ030>032-037>040-046>048-054>057-064-065-150100-
CENTRAL INDIANA

CITY           SKY/WX    TMP DP  RH WIND       PRES   REMARKS
CP ATTERBURY + CLEAR     59  52  77 CALM      30.21S
COLUMBUS       CLEAR     61  52  72 CALM      30.21R
FRANKFORT +    CLEAR     59  51  74 CALM      30.22S
INDIANAPOLIS   PTCLDY    62  45  53 S5        30.20S
6HR MIN TEMP:  62; 6HR MAX TEMP:  68;

-EAGLE CREEK   CLEAR     63  44  50 SW3       30.20S
6HR MIN TEMP:  63; 6HR MAX TEMP:  69;

KOKOMO *+      CLEAR     61  46  59 NW5       30.21S
MARION +       CLEAR     59  46  63 CALM      30.21S
MT COMFORT *+  CLEAR     61  45  55 CALM      30.21S
SHELBYVILLE    CLEAR     64  49  57 W3        30.20S
6HR MIN TEMP:  64; 6HR MAX TEMP:  71;

ZIONSVILLE +   CLEAR     59  51  73 CALM      30.22S
6HR MIN TEMP:  59; 6HR MAX TEMP:  67;


$$

INZ033-034-041-042-049-050-058-059-150100-
EAST CENTRAL INDIANA

CITY           SKY/WX    TMP DP  RH WIND       PRES   REMARKS
MUNCIE         CLEAR     57  48  72 NW5       30.21R
6HR MIN TEMP:  57; 6HR MAX TEMP:  68;


$$

INZ060-061-067>069-081>083-085>088-150100-
SOUTHWEST INDIANA

CITY           SKY/WX    TMP DP  RH WIND       PRES   REMARKS
EVANSVILLE     CLEAR     65  52  62 NW3       30.20S
6HR MIN TEMP:  65; 6HR MAX TEMP:  73;

WASHINGTON +   CLEAR     60  53  80 CALM      30.20S
6HR MIN TEMP:  60; 6HR MAX TEMP:  71;


$$

INZ062-063-066-070>080-084-089>092-150100-
SOUTH CENTRAL AND SOUTHEAST INDIANA

CITY           SKY/WX    TMP DP  RH WIND       PRES   REMARKS
BLOOMINGTON    CLEAR     57  53  86 CALM      30.21S
6HR MIN TEMP:  57; 6HR MAX TEMP:  69;

SEYMOUR +      CLEAR     64  50  59 CALM      30.20

$$



USA.gov is the U.S. government's official web portal to all federal, state and local government web resources and services.